When you browse on this site, cookies collect data to enhance your experience and personalize the content and advertising you see.
Visit our Privacy Policy to learn more. By continuing to use the site, you agree to this use of cookies and data.
  • In Hungary
  • List of Countries
  • For 7 days
  • Water Temperature
  • Satellite Maps
  • Weather Map
  • News
  • Weather Widgets
  • user-avatar
    Login

    Hourly Weather Staraya Vyzhevka

    Today, 21 April, Sunday

    Time Temperature Precipitation Wind Pressure Humidity
    00:00 +9°C° 0 mm 2 mps 751 mmHg 64%
    01:00 +9°C° 0 mm 2 mps 751 mmHg 66%
    02:00 +9°C° 0 mm 2 mps 750 mmHg 61%
    03:00 +9°C° 0 mm 2 mps 750 mmHg 65%
    04:00 +8°C° 0 mm 2 mps 750 mmHg 70%
    05:00 +8°C° 0 mm 2 mps 749 mmHg 74%
    06:00 +9°C° 0.1 mm 2 mps 749 mmHg 76%
    07:00 +9°C° 0.1 mm 3 mps 749 mmHg 78%
    08:00 +10°C° 0.1 mm 3 mps 749 mmHg 79%
    09:00 +10°C° 0.2 mm 3 mps 749 mmHg 75%
    10:00 +11°C° 0.2 mm 3 mps 749 mmHg 70%
    11:00 +12°C° 0.2 mm 4 mps 749 mmHg 66%
    12:00 +13°C° 0.2 mm 4 mps 749 mmHg 62%
    13:00 +13°C° 0.2 mm 4 mps 749 mmHg 59%
    14:00 +14°C° 0.2 mm 4 mps 748 mmHg 55%
    15:00 +14°C° 0.3 mm 4 mps 748 mmHg 56%
    16:00 +13°C° 0.3 mm 4 mps 748 mmHg 57%
    17:00 +13°C° 0.3 mm 4 mps 748 mmHg 57%
    18:00 +12°C° 0.1 mm 3 mps 748 mmHg 64%
    19:00 +10°C° 0.1 mm 2 mps 747 mmHg 71%
    20:00 +10°C° 0.1 mm 1 mps 747 mmHg 78%
    21:00 +9°C° 0.7 mm 1 mps 747 mmHg 82%
    22:00 +9°C° 0.7 mm 1 mps 747 mmHg 86%
    23:00 +8°C° 0.7 mm 1 mps 747 mmHg 89%

    Tomorrow, 22 April, Monday

    Time Temperature Precipitation Wind Pressure Humidity
    00:00 +8°C° 0.1 mm 1 mps 748 mmHg 89%
    01:00 +7°C° 0.1 mm 2 mps 748 mmHg 89%
    02:00 +7°C° 0.1 mm 2 mps 748 mmHg 89%
    03:00 +7°C° 0 mm 2 mps 748 mmHg 91%
    04:00 +5°C° 0 mm 3 mps 748 mmHg 93%
    05:00 +5°C° 0 mm 3 mps 749 mmHg 95%
    06:00 +6°C° 0 mm 4 mps 749 mmHg 90%
    07:00 +8°C° 0 mm 5 mps 750 mmHg 86%
    08:00 +9°C° 0 mm 6 mps 750 mmHg 81%
    09:00 +10°C° 0 mm 7 mps 751 mmHg 75%
    10:00 +10°C° 0 mm 7 mps 751 mmHg 70%
    11:00 +11°C° 0 mm 8 mps 752 mmHg 64%
    12:00 +12°C° 0 mm 8 mps 752 mmHg 58%
    13:00 +13°C° 0 mm 8 mps 752 mmHg 52%
    14:00 +15°C° 0 mm 7 mps 752 mmHg 45%
    15:00 +15°C° 0 mm 7 mps 752 mmHg 45%
    16:00 +15°C° 0 mm 7 mps 752 mmHg 46%
    17:00 +14°C° 0 mm 7 mps 752 mmHg 46%
    18:00 +13°C° 0 mm 6 mps 752 mmHg 49%
    19:00 +10°C° 0 mm 5 mps 752 mmHg 53%
    20:00 +10°C° 0 mm 4 mps 753 mmHg 56%
    21:00 +8°C° 0 mm 5 mps 753 mmHg 58%
    22:00 +8°C° 0 mm 5 mps 753 mmHg 59%
    23:00 +7°C° 0 mm 5 mps 754 mmHg 60%

    Day after tomorrow, 23 April, Tuesday

    Time Temperature Precipitation Wind Pressure Humidity
    00:00 +7°C° 0 mm 5 mps 753 mmHg 61%
    01:00 +7°C° 0 mm 5 mps 753 mmHg 63%
    02:00 +6°C° 0 mm 5 mps 753 mmHg 64%
    03:00 +6°C° 0 mm 5 mps 753 mmHg 64%
    04:00 +6°C° 0 mm 5 mps 753 mmHg 65%
    05:00 +5°C° 0 mm 6 mps 753 mmHg 65%
    06:00 +6°C° 0 mm 7 mps 753 mmHg 61%
    07:00 +7°C° 0 mm 8 mps 754 mmHg 57%
    08:00 +10°C° 0 mm 9 mps 754 mmHg 53%
    09:00 +11°C° 0 mm 9 mps 754 mmHg 50%
    10:00 +12°C° 0 mm 10 mps 754 mmHg 46%
    11:00 +13°C° 0 mm 10 mps 753 mmHg 43%
    12:00 +14°C° 0 mm 10 mps 753 mmHg 42%
    13:00 +16°C° 0 mm 10 mps 753 mmHg 41%
    14:00 +16°C° 0 mm 10 mps 753 mmHg 41%
    15:00 +16°C° 0 mm 9 mps 752 mmHg 43%
    16:00 +16°C° 0 mm 9 mps 752 mmHg 44%
    17:00 +16°C° 0 mm 8 mps 752 mmHg 46%
    18:00 +13°C° 0 mm 8 mps 752 mmHg 50%
    19:00 +12°C° 0 mm 7 mps 752 mmHg 53%
    20:00 +11°C° 0 mm 6 mps 751 mmHg 57%
    21:00 +10°C° 0 mm 6 mps 752 mmHg 58%
    22:00 +10°C° 0 mm 6 mps 752 mmHg 58%
    23:00 +10°C° 0 mm 6 mps 752 mmHg 59%

    24 April, Wednesday

    Time Temperature Precipitation Wind Pressure Humidity
    00:00 +9°C° 0 mm 6 mps 752 mmHg 60%
    01:00 +9°C° 0 mm 7 mps 751 mmHg 61%
    02:00 +8°C° 0 mm 7 mps 751 mmHg 62%
    03:00 +8°C° 0 mm 7 mps 751 mmHg 61%
    04:00 +8°C° 0 mm 7 mps 751 mmHg 60%
    05:00 +7°C° 0 mm 8 mps 751 mmHg 59%
    06:00 +9°C° 0 mm 8 mps 751 mmHg 58%
    07:00 +8°C° 0 mm 9 mps 751 mmHg 57%
    08:00 +10°C° 0 mm 9 mps 751 mmHg 56%
    09:00 +11°C° 0 mm 9 mps 751 mmHg 54%
    10:00 +12°C° 0 mm 9 mps 752 mmHg 51%
    11:00 +14°C° 0 mm 10 mps 752 mmHg 48%
    12:00 +16°C° 0 mm 9 mps 752 mmHg 48%
    13:00 +17°C° 0 mm 9 mps 751 mmHg 48%
    14:00 +18°C° 0 mm 9 mps 751 mmHg 48%
    15:00 +18°C° 0 mm 9 mps 751 mmHg 50%
    16:00 +18°C° 0 mm 8 mps 751 mmHg 52%
    17:00 +18°C° 0 mm 8 mps 751 mmHg 53%
    18:00 +16°C° 0 mm 7 mps 751 mmHg 57%
    19:00 +15°C° 0 mm 6 mps 751 mmHg 61%
    20:00 +14°C° 0 mm 6 mps 751 mmHg 65%
    21:00 +13°C° 0 mm 6 mps 751 mmHg 66%
    22:00 +13°C° 0 mm 6 mps 751 mmHg 67%
    23:00 +11°C° 0 mm 6 mps 751 mmHg 69%

    25 April, Thursday

    Time Temperature Precipitation Wind Pressure Humidity
    00:00 +12°C° 0 mm 5 mps 751 mmHg 70%
    01:00 +12°C° 0 mm 5 mps 751 mmHg 71%
    02:00 +10°C° 0 mm 5 mps 750 mmHg 72%
    03:00 +10°C° 0 mm 5 mps 750 mmHg 74%
    04:00 +10°C° 0 mm 5 mps 750 mmHg 76%
    05:00 +9°C° 0 mm 5 mps 750 mmHg 78%
    06:00 +10°C° 0 mm 5 mps 750 mmHg 76%
    07:00 +10°C° 0 mm 6 mps 750 mmHg 75%
    08:00 +11°C° 0 mm 6 mps 751 mmHg 74%
    09:00 +14°C° 0 mm 6 mps 750 mmHg 69%
    10:00 +16°C° 0 mm 6 mps 750 mmHg 64%
    11:00 +17°C° 0 mm 6 mps 750 mmHg 59%
    12:00 +19°C° 0 mm 6 mps 750 mmHg 57%
    13:00 +21°C° 0 mm 7 mps 750 mmHg 55%
    14:00 +22°C° 0 mm 7 mps 750 mmHg 52%
    15:00 +22°C° 0 mm 6 mps 749 mmHg 53%
    16:00 +22°C° 0 mm 6 mps 749 mmHg 54%
    17:00 +22°C° 0 mm 6 mps 749 mmHg 55%
    18:00 +21°C° 0 mm 5 mps 748 mmHg 60%
    19:00 +19°C° 0 mm 5 mps 748 mmHg 66%
    20:00 +16°C° 0 mm 5 mps 748 mmHg 71%
    21:00 +16°C° 0 mm 5 mps 748 mmHg 71%
    22:00 +15°C° 0 mm 5 mps 748 mmHg 72%
    23:00 +15°C° 0 mm 5 mps 748 mmHg 73%

    26 April, Friday

    Time Temperature Precipitation Wind Pressure Humidity
    00:00 +14°C° 0 mm 5 mps 748 mmHg 76%
    01:00 +14°C° 0 mm 4 mps 748 mmHg 80%
    02:00 +13°C° 0 mm 4 mps 748 mmHg 83%
    03:00 +13°C° 0 mm 3 mps 747 mmHg 85%
    04:00 +12°C° 0 mm 3 mps 747 mmHg 87%
    05:00 +12°C° 0 mm 3 mps 747 mmHg 88%
    06:00 +14°C° 0 mm 4 mps 747 mmHg 84%
    07:00 +15°C° 0 mm 4 mps 747 mmHg 79%
    08:00 +18°C° 0 mm 4 mps 747 mmHg 75%
    09:00 +20°C° 0 mm 5 mps 747 mmHg 68%
    10:00 +22°C° 0 mm 5 mps 746 mmHg 62%
    11:00 +24°C° 0 mm 6 mps 746 mmHg 56%
    12:00 +24°C° 0 mm 6 mps 746 mmHg 53%
    13:00 +26°C° 0 mm 6 mps 746 mmHg 50%
    14:00 +27°C° 0 mm 6 mps 745 mmHg 46%
    15:00 +27°C° 0 mm 6 mps 745 mmHg 47%
    16:00 +27°C° 0 mm 5 mps 745 mmHg 48%
    17:00 +27°C° 0 mm 5 mps 745 mmHg 49%
    18:00 +25°C° 0.1 mm 4 mps 744 mmHg 56%
    19:00 +22°C° 0.1 mm 4 mps 744 mmHg 63%
    20:00 +20°C° 0.1 mm 4 mps 744 mmHg 70%
    21:00 +19°C° 0.6 mm 4 mps 744 mmHg 73%
    22:00 +18°C° 0.6 mm 4 mps 744 mmHg 77%
    23:00 +17°C° 0.6 mm 4 mps 744 mmHg 81%
    Show more